EW7114 Weather Reports


Display with metric or nautical units.
time (UTC)temp
F
wind
direction
speed
MPH
gust
MPH
rain 1hr
in
rain 24hr
in
rain mn
in
humidity
%
barometer
mb
20260510020552 69 38 1.0 4.0 0.00 0.00 0.00 23 1009.2
20260510020050 69 38 1.0 4.0 0.00 0.00 0.00 22 1009.2
20260510015550 70 57 1.0 3.0 0.00 0.00 0.00 21 1009.2
20260510015050 70 39 1.0 5.0 0.00 0.00 0.00 21 1009.1
20260510014549 70 55 2.0 5.0 0.00 0.00 0.00 21 1009.1
20260510014049 70 22 2.0 3.0 0.00 0.00 0.00 21 1009.1
20260510013549 70 17 1.0 5.0 0.00 0.00 0.00 21 1009.1
20260510013049 70 359 2.0 12.0 0.00 0.00 0.00 20 1009.1
20260510012547 70 45 5.0 12.0 0.00 0.00 0.00 19 1009.1
20260510012050 70 55 3.0 9.0 0.00 0.00 0.00 21 1009.1
20260510011549 70 74 4.0 10.0 0.00 0.00 0.00 20 1009.1
20260510011046 70 72 5.0 10.0 0.00 0.00 0.00 20 1009.2
20260510010547 70 24 4.0 11.0 0.00 0.00 0.00 20 1009.2
20260510010045 70 331 5.0 12.0 0.00 0.00 0.00 21 1009.1
20260510005547 70 11 8.0 17.0 0.00 0.00 0.00 21 1009.2
20260510005046 70 359 9.0 16.0 0.00 0.00 0.00 21 1009.0
20260510004548 71 22 10.0 17.0 0.00 0.00 0.00 22 1009.1
20260510004043 71 28 9.0 17.0 0.00 0.00 0.00 21 1009.1
20260510003542 71 12 10.0 17.0 0.00 0.00 0.00 22 1009.1
20260510003042 71 24 10.0 16.0 0.00 0.00 0.00 23 1009.1
20260510002541 71 359 9.0 16.0 0.00 0.00 0.00 22 1009.1
20260510002040 71 39 10.0 16.0 0.00 0.00 0.00 23 1009.1
20260510001540 71 45 8.0 18.0 0.00 0.00 0.00 22 1009.1
20260510001040 71 359 10.0 18.0 0.00 0.00 0.00 23 1009.2
20260510000541 71 31 10.0 17.0 0.00 0.00 0.00 23 1009.1
20260510000042 71 317 6.0 15.0 0.00 0.00 0.00 21 1009.1
20260509235538 72 20 9.0 15.0 0.00 0.00 0.00 24 1009.0
20260509235037 72 345 9.0 17.0 0.00 0.00 0.00 24 1009.0
20260509234541 72 51 10.0 17.0 0.00 0.00 0.00 24 1009.0
20260509234040 71 52 11.0 19.0 0.00 0.00 0.00 25 1009.0
20260509233539 71 16 10.0 19.0 0.00 0.00 0.00 24 1009.2
20260509233037 71 27 6.0 18.0 0.00 0.00 0.00 24 1009.2
20260509232538 72 1 9.0 18.0 0.00 0.00 0.00 25 1009.1
20260509232035 72 38 9.0 16.0 0.00 0.00 0.00 25 1009.0
20260509231539 72 30 10.0 16.0 0.00 0.00 0.00 25 1009.0
20260509231034 71 51 8.0 18.0 0.00 0.00 0.00 26 1009.1
20260509230534 71 30 9.0 17.0 0.00 0.00 0.00 25 1009.1
20260509230034 72 6 12.0 17.0 0.00 0.00 0.00 25 1009.2
20260509225535 72 40 11.0 16.0 0.00 0.00 0.00 26 1009.1
20260509225033 72 328 7.0 12.0 0.00 0.00 0.00 25 1009.2
20260509224534 72 345 7.0 15.0 0.00 0.00 0.00 26 1009.2
20260509224032 72 315 8.0 15.0 0.00 0.00 0.00 25 1009.3
20260509223531 72 350 8.0 18.0 0.00 0.00 0.00 26 1009.2
20260509223034 72 23 11.0 18.0 0.00 0.00 0.00 26 1009.2
20260509222530 71 20 7.0 16.0 0.00 0.00 0.00 27 1009.4
20260509222029 71 325 7.0 16.0 0.00 0.00 0.00 25 1009.4
20260509221530 71 338 11.0 17.0 0.00 0.00 0.00 26 1009.4
20260509221028 71 311 12.0 17.0 0.00 0.00 0.00 27 1009.5
20260509220531 71 345 7.0 15.0 0.00 0.00 0.00 28 1009.5
20260509220028 71 345 10.0 17.0 0.00 0.00 0.00 26 1009.7
20260509215527 71 31 8.0 17.0 0.00 0.00 0.00 28 1009.6
20260509215027 71 20 7.0 14.0 0.00 0.00 0.00 28 1009.6
20260509214527 71 11 9.0 14.0 0.00 0.00 0.00 28 1009.6
20260509214025 71 37 7.0 14.0 0.00 0.00 0.00 29 1009.6
20260509213525 70 44 8.0 14.0 0.00 0.00 0.00 29 1009.6
20260509213025 70 26 8.0 14.0 0.00 0.00 0.00 30 1009.6
20260509212524 70 2 7.0 13.0 0.00 0.00 0.00 30 1009.7
20260509212027 70 359 4.0 13.0 0.00 0.00 0.00 30 1009.7
20260509211524 70 319 9.0 14.0 0.00 0.00 0.00 30 1009.7
20260509211026 70 20 8.0 16.0 0.00 0.00 0.00 30 1009.7
20260509210527 71 297 8.0 16.0 0.00 0.00 0.00 30 1009.8
20260509210023 70 60 7.0 13.0 0.00 0.00 0.00 30 1009.8
20260509205522 70 9 6.0 16.0 0.00 0.00 0.00 30 1010.0
20260509205022 70 52 8.0 16.0 0.00 0.00 0.00 30 1009.9
20260509204522 70 58 7.0 14.0 0.00 0.00 0.00 30 1009.8
20260509204024 69 48 6.0 14.0 0.00 0.00 0.00 32 1009.9
20260509203521 69 30 9.0 16.0 0.00 0.00 0.00 32 1010.0
20260509203031 69 345 8.0 16.0 0.00 0.00 0.00 30 1010.0
20260509202520 70 12 8.0 16.0 0.00 0.00 0.00 30 1010.0
20260509202021 69 35 10.0 16.0 0.00 0.00 0.00 31 1010.0
20260509201520 69 345 7.0 15.0 0.00 0.00 0.00 33 1010.0
20260509201025 69 41 9.0 15.0 0.00 0.00 0.00 30 1010.1
20260509200520 69 66 8.0 16.0 0.00 0.00 0.00 31 1010.2
20260509200019 69 17 10.0 16.0 0.00 0.00 0.00 32 1010.2
20260509195520 69 355 9.0 14.0 0.00 0.00 0.00 31 1010.2
20260509195019 69 32 5.0 19.0 0.00 0.00 0.00 32 1010.3
20260509194519 69 350 7.0 19.0 0.00 0.00 0.00 31 1010.4
20260509194019 70 89 6.0 16.0 0.00 0.00 0.00 31 1010.4
20260509193520 69 32 7.0 14.0 0.00 0.00 0.00 31 1010.4
20260509193018 69 55 7.0 13.0 0.00 0.00 0.00 31 1010.6
20260509192517 69 345 5.0 17.0 0.00 0.00 0.00 31 1010.6
20260509192017 69 340 11.0 17.0 0.00 0.00 0.00 29 1010.6
20260509191520 69 45 8.0 17.0 0.00 0.00 0.00 31 1010.4
20260509191016 69 45 7.0 15.0 0.00 0.00 0.00 30 1010.5
20260509190514 68 32 9.0 15.0 0.00 0.00 0.00 30 1010.6
20260509190017 68 45 9.0 15.0 0.00 0.00 0.00 28 1010.7
20260509185512 68 51 8.0 16.0 0.00 0.00 0.00 30 1010.7
20260509185012 68 37 9.0 16.0 0.00 0.00 0.00 28 1010.7
20260509184512 67 39 9.0 16.0 0.00 0.00 0.00 29 1010.8
20260509184012 67 22 10.0 18.0 0.00 0.00 0.00 29 1010.9
20260509183510 67 345 12.0 18.0 0.00 0.00 0.00 28 1010.9
20260509183010 67 359 7.0 15.0 0.00 0.00 0.00 29 1010.9
20260509182512 68 29 9.0 15.0 0.00 0.00 0.00 28 1010.9
20260509182010 67 355 8.0 16.0 0.00 0.00 0.00 29 1010.9
20260509181510 68 33 10.0 17.0 0.00 0.00 0.00 27 1010.9
20260509181010 68 22 9.0 16.0 0.00 0.00 0.00 29 1010.8
20260509180509 67 20 6.0 13.0 0.00 0.00 0.00 29 1010.9
20260509180009 66 2 7.0 13.0 0.00 0.00 0.00 29 1011.0
20260509175508 66 355 9.0 16.0 0.00 0.00 0.00 28 1011.0
20260509175007 66 1 9.0 16.0 0.00 0.00 0.00 27 1011.0
20260509174507 67 16 10.0 19.0 0.00 0.00 0.00 26 1011.0
20260509174006 67 51 8.0 17.0 0.00 0.00 0.00 28 1011.1
20260509173504 67 8 7.0 17.0 0.00 0.00 0.00 29 1011.1
20260509173004 66 324 7.0 17.0 0.00 0.00 0.00 27 1011.2
20260509172504 66 5 9.0 15.0 0.00 0.00 0.00 27 1011.1
20260509172003 65 350 11.0 15.0 0.00 0.00 0.00 29 1011.1
20260509171503 66 6 7.0 15.0 0.00 0.00 0.00 28 1011.1
20260509171003 66 359 9.0 17.0 0.00 0.00 0.00 29 1011.1
20260509170501 66 355 11.0 17.0 0.00 0.00 0.00 30 1011.1
20260509170101 66 11 9.0 18.0 0.00 0.00 0.00 30 1011.0
20260509165559 65 17 10.0 17.0 0.00 0.00 0.00 30 1011.0
20260509165058 65 5 9.0 15.0 0.00 0.00 0.00 31 1011.0
20260509164602 64 16 8.0 15.0 0.00 0.00 0.00 31 1011.0
20260509164101 63 5 9.0 15.0 0.00 0.00 0.00 30 1011.0
20260509163556 64 359 10.0 16.0 0.00 0.00 0.00 29 1011.0
20260509163057 64 28 10.0 16.0 0.00 0.00 0.00 31 1010.9
20260509162557 64 13 8.0 14.0 0.00 0.00 0.00 30 1011.0
20260509162057 65 336 9.0 14.0 0.00 0.00 0.00 32 1011.0
20260509161557 64 359 9.0 14.0 0.00 0.00 0.00 30 1011.1
20260509161059 64 355 8.0 14.0 0.00 0.00 0.00 32 1011.1
20260509160557 64 299 9.0 14.0 0.00 0.00 0.00 32 1011.1
20260509160055 64 3 7.0 14.0 0.00 0.00 0.00 33 1011.1
20260509155555 64 335 7.0 13.0 0.00 0.00 0.00 33 1011.1
20260509155054 64 3 9.0 16.0 0.00 0.00 0.00 34 1011.1
20260509154555 64 319 9.0 16.0 0.00 0.00 0.00 34 1011.2
20260509154051 64 334 8.0 15.0 0.00 0.00 0.00 34 1011.0
20260509153551 63 13 10.0 16.0 0.00 0.00 0.00 33 1011.1
20260509153100 63 25 7.0 15.0 0.00 0.00 0.00 36 1011.1
20260509152549 63 345 10.0 14.0 0.00 0.00 0.00 34 1011.0
20260509152050 63 345 8.0 14.0 0.00 0.00 0.00 35 1011.0
20260509151552 63 16 8.0 14.0 0.00 0.00 0.00 37 1011.0
20260509151047 63 355 9.0 15.0 0.00 0.00 0.00 39 1011.0
20260509150547 62 359 8.0 14.0 0.00 0.00 0.00 39 1011.0
20260509150048 62 324 8.0 14.0 0.00 0.00 0.00 39 1010.9
20260509145547 62 350 8.0 14.0 0.00 0.00 0.00 39 1011.0
20260509145048 62 339 8.0 13.0 0.00 0.00 0.00 38 1010.9
20260509144546 62 355 7.0 13.0 0.00 0.00 0.00 37 1010.9
20260509144044 62 345 7.0 13.0 0.00 0.00 0.00 37 1010.9
20260509143547 62 355 7.0 14.0 0.00 0.00 0.00 37 1010.8
20260509143043 62 334 9.0 14.0 0.00 0.00 0.00 37 1010.8
20260509142542 61 345 8.0 10.0 0.00 0.00 0.00 37 1010.9
20260509142040 61 64 3.0 6.0 0.00 0.00 0.00 41 1010.9
20260509141538 60 17 2.0 6.0 0.00 0.00 0.00 41 1010.9
20260509141036 60 58 3.0 6.0 0.00 0.00 0.00 41 1011.0
20260509140536 59 36 3.0 7.0 0.00 0.00 0.00 40 1010.8
20260509140043 59 41 3.0 6.0 0.00 0.00 0.00 41 1010.9
20260509135534 58 24 4.0 6.0 0.00 0.00 0.00 40 1010.9
20260509135031 58 7 3.0 6.0 0.00 0.00 0.00 40 1010.8
20260509134536 58 355 3.0 6.0 0.00 0.00 0.00 40 1010.8
20260509134032 57 355 3.0 6.0 0.00 0.00 0.00 40 1010.8
20260509133531 57 355 3.0 6.0 0.00 0.00 0.00 40 1010.8
20260509133031 57 345 3.0 8.0 0.00 0.00 0.00 40 1010.7
20260509132530 57 345 4.0 8.0 0.00 0.00 0.00 41 1010.7
20260509132035 56 315 5.0 8.0 0.00 0.00 0.00 42 1010.6
20260509131533 54 350 4.0 8.0 0.00 0.00 0.00 43 1010.6
20260509131029 53 2 3.0 8.0 0.00 0.00 0.00 46 1010.5
20260509130531 52 331 3.0 6.0 0.00 0.00 0.00 48 1010.6
20260509130028 51 320 3.0 8.0 0.00 0.00 0.00 49 1010.5
20260509125531 50 334 3.0 8.0 0.00 0.00 0.00 49 1010.4
20260509125026 49 301 4.0 8.0 0.00 0.00 0.00 50 1010.3
20260509124526 49 359 2.0 5.0 0.00 0.00 0.00 50 1010.4
20260509124026 49 28 3.0 8.0 0.00 0.00 0.00 49 1010.4
20260509123525 50 327 5.0 9.0 0.00 0.00 0.00 49 1010.4
20260509123025 49 308 4.0 9.0 0.00 0.00 0.00 51 1010.3
20260509122523 47 297 5.0 8.0 0.00 0.00 0.00 54 1010.3
20260509122023 46 326 4.0 8.0 0.00 0.00 0.00 53 1010.2
20260509121522 47 315 4.0 8.0 0.00 0.00 0.00 53 1010.2
20260509121020 47 317 3.0 6.0 0.00 0.00 0.00 53 1010.2
20260509120519 49 328 3.0 8.0 0.00 0.00 0.00 50 1010.2
20260509120019 50 300 4.0 8.0 0.00 0.00 0.00 49 1010.1
20260509115521 50 308 3.0 5.0 0.00 0.00 0.00 52 1010.2
20260509115017 50 299 2.0 5.0 0.00 0.00 0.00 52 1010.2
20260509114517 50 359 2.0 5.0 0.00 0.00 0.00 53 1010.2
20260509114017 50 311 2.0 5.0 0.00 0.00 0.00 53 1010.1
20260509113516 50 359 2.0 5.0 0.00 0.00 0.00 54 1010.1
20260509113016 49 359 3.0 6.0 0.00 0.00 0.00 53 1010.1
20260509112514 49 341 2.0 8.0 0.00 0.00 0.00 52 1010.1
20260509112016 50 324 3.0 6.0 0.00 0.00 0.00 52 1010.0
20260509111514 50 295 4.0 6.0 0.00 0.00 0.00 53 1009.9
20260509111013 51 299 3.0 5.0 0.00 0.00 0.00 54 1009.9
20260509110514 52 350 3.0 6.0 0.00 0.00 0.00 53 1009.9
20260509110013 51 350 4.0 6.0 0.00 0.00 0.00 53 1009.9
20260509105513 51 359 4.0 6.0 0.00 0.00 0.00 53 1009.9
20260509105012 51 345 3.0 6.0 0.00 0.00 0.00 52 1009.8
20260509104513 51 3 4.0 6.0 0.00 0.00 0.00 52 1009.9
20260509104012 51 32 3.0 6.0 0.00 0.00 0.00 52 1009.8
20260509103511 51 328 2.0 6.0 0.00 0.00 0.00 51 1009.9
20260509103011 51 333 3.0 9.0 0.00 0.00 0.00 50 1009.9
20260509102511 51 359 5.0 9.0 0.00 0.00 0.00 49 1009.8
20260509102010 52 322 5.0 9.0 0.00 0.00 0.00 49 1010.0
20260509101510 53 320 4.0 9.0 0.00 0.00 0.00 48 1010.0
20260509101014 53 319 6.0 10.0 0.00 0.00 0.00 47 1010.0
20260509100511 53 325 7.0 10.0 0.00 0.00 0.00 47 1010.0
20260509100009 53 319 6.0 10.0 0.00 0.00 0.00 47 1010.0
20260509095509 53 319 4.0 8.0 0.00 0.00 0.00 48 1010.0
20260509095011 53 336 5.0 10.0 0.00 0.00 0.00 47 1010.0
20260509094510 54 328 5.0 10.0 0.00 0.00 0.00 47 1010.0
20260509094008 54 326 5.0 9.0 0.00 0.00 0.00 46 1009.9
20260509093509 55 327 5.0 9.0 0.00 0.00 0.00 46 1009.8
20260509093005 55 345 4.0 9.0 0.00 0.00 0.00 46 1009.8
20260509092504 54 322 5.0 8.0 0.00 0.00 0.00 47 1009.8
20260509092008 54 340 4.0 9.0 0.00 0.00 0.00 47 1009.8
20260509091504 54 332 4.0 9.0 0.00 0.00 0.00 47 1009.7
20260509091004 54 315 4.0 9.0 0.00 0.00 0.00 46 1009.7
20260509090502 55 332 3.0 9.0 0.00 0.00 0.00 46 1009.6
20260509090003 54 333 4.0 9.0 0.00 0.00 0.00 47 1009.5
20260509085502 54 313 5.0 9.0 0.00 0.00 0.00 48 1009.6
20260509085002 54 313 5.0 9.0 0.00 0.00 0.00 48 1009.5
20260509084502 54 324 5.0 8.0 0.00 0.00 0.00 50 1009.4
20260509084101 53 330 2.0 8.0 0.00 0.00 0.00 52 1009.4
20260509083559 53 323 3.0 9.0 0.00 0.00 0.00 51 1009.3
20260509083059 52 311 5.0 8.0 0.00 0.00 0.00 52 1009.4
20260509082558 52 319 4.0 8.0 0.00 0.00 0.00 53 1009.3
20260509082101 53 359 2.0 6.0 0.00 0.00 0.00 53 1009.2
20260509081558 53 321 3.0 5.0 0.00 0.00 0.00 53 1009.2
20260509081058 53 350 2.0 6.0 0.00 0.00 0.00 52 1009.2
20260509080601 53 312 2.0 8.0 0.00 0.00 0.00 52 1009.2
20260509080157 53 359 3.0 8.0 0.00 0.00 0.00 52 1009.2
20260509075559 53 350 1.0 6.0 0.00 0.00 0.00 51 1009.2
20260509075055 54 345 2.0 6.0 0.00 0.00 0.00 50 1009.2
20260509074556 54 332 2.0 5.0 0.00 0.00 0.00 50 1009.2
20260509074058 55 332 0.0 8.0 0.00 0.00 0.00 48 1009.2
20260509073553 56 22 1.0 8.0 0.00 0.00 0.00 48 1009.2
20260509073129 56 305 4.0 8.0 0.00 0.00 0.00 46 1009.2
20260509072557 57 303 4.0 10.0 0.00 0.00 0.00 45 1009.2
20260509072053 58 307 5.0 10.0 0.00 0.00 0.00 45 1009.0
20260509071552 58 298 5.0 10.0 0.00 0.00 0.00 44 1008.9
20260509071051 58 326 6.0 10.0 0.00 0.00 0.00 45 1008.9
20260509070552 58 301 4.0 10.0 0.00 0.00 0.00 44 1008.9
20260509070054 57 319 7.0 10.0 0.00 0.00 0.00 47 1008.9
20260509065547 56 308 4.0 9.0 0.00 0.00 0.00 49 1008.7
20260509065047 55 323 3.0 6.0 0.00 0.00 0.00 51 1008.8
20260509064547 55 345 1.0 5.0 0.00 0.00 0.00 50 1008.6
20260509064051 56 315 0.0 4.0 0.00 0.00 0.00 49 1008.5
20260509063545 56 290 1.0 6.0 0.00 0.00 0.00 50 1008.5
20260509063044 55 290 3.0 6.0 0.00 0.00 0.00 51 1008.6
20260509062543 53 285 2.0 4.0 0.00 0.00 0.00 52 1008.6
20260509062043 53 319 1.0 5.0 0.00 0.00 0.00 52 1008.7
20260509061540 51 323 3.0 5.0 0.00 0.00 0.00 53 1008.8
20260509061038 48 255 0.0 2.0 0.00 0.00 0.00 52 1008.7
20260509060537 48 255 0.0 4.0 0.00 0.00 0.00 53 1008.8
20260509060046 48 255 1.0 4.0 0.00 0.00 0.00 53 1008.7
20260509055536 49 255 2.0 5.0 0.00 0.00 0.00 53 1008.9
20260509055036 49 350 3.0 5.0 0.00 0.00 0.00 53 1008.9
20260509054533 50 33 0.0 2.0 0.00 0.00 0.00 53 1008.4
20260509054031 50 33 1.0 3.0 0.00 0.00 0.00 53 1008.2
20260509053529 50 33 1.0 3.0 0.00 0.00 0.00 53 1008.3
20260509053032 50 330 0.0 0.0 0.00 0.00 0.00 52 1008.3
20260509052526 50 330 0.0 2.0 0.00 0.00 0.00 52 1008.3
20260509052025 49 330 1.0 3.0 0.00 0.00 0.00 52 1008.3
20260509051523 49 330 0.0 3.0 0.00 0.00 0.00 51 1008.2
20260509051022 49 283 0.0 2.0 0.00 0.00 0.00 49 1008.3
20260509050521 49 282 0.0 3.0 0.00 0.00 0.00 52 1008.3
20260509050019 49 282 0.0 4.0 0.00 0.00 0.00 52 1008.3
20260509045518 50 303 2.0 4.0 0.00 0.00 0.00 53 1008.2
20260509045016 50 172 1.0 3.0 0.00 0.00 0.00 53 1008.1
20260509044518 49 172 1.0 5.0 0.00 0.00 0.00 53 1008.2
20260509044014 50 173 2.0 5.0 0.00 0.00 0.00 53 1008.1
20260509043512 49 174 3.0 5.0 0.00 0.00 0.00 53 1008.1
20260509043017 50 179 2.0 3.0 0.00 0.00 0.00 52 1008.1
20260509042509 50 183 2.0 5.0 0.00 0.00 0.00 52 1008.0
20260509042008 52 182 3.0 5.0 0.00 0.00 0.00 50 1007.8
20260509041506 53 191 3.0 4.0 0.00 0.00 0.00 50 1007.8
20260509041005 53 124 0.0 3.0 0.00 0.00 0.00 51 1007.7
20260509040503 54 89 1.0 3.0 0.00 0.00 0.00 49 1007.7
20260509040002 54 89 1.0 2.0 0.00 0.00 0.00 49 1007.6
20260509035601 55 89 1.0 2.0 0.00 0.00 0.00 49 1007.5
20260509035100 55 89 1.0 2.0 0.00 0.00 0.00 49 1007.6
20260509034601 54 89 0.0 0.0 0.00 0.00 0.00 48 1007.5
20260509034056 54 89 0.0 0.0 0.00 0.00 0.00 49 1007.4
20260509033556 55 89 0.0 1.0 0.00 0.00 0.00 49 1007.3
20260509033053 55 89 0.0 2.0 0.00 0.00 0.00 47 1007.3
20260509032551 56 89 1.0 4.0 0.00 0.00 0.00 46 1007.2
20260509032051 58 83 1.0 4.0 0.00 0.00 0.00 46 1007.1
20260509031550 58 299 0.0 0.0 0.00 0.00 0.00 45 1007.1
20260509031050 59 299 0.0 0.0 0.00 0.00 0.00 44 1007.1
20260509030549 59 299 0.0 0.0 0.00 0.00 0.00 43 1007.1
20260509030048 59 299 0.0 0.0 0.00 0.00 0.00 42 1007.0
20260509025548 59 299 0.0 0.0 0.00 0.00 0.00 42 1007.0
20260509025046 59 299 0.0 2.0 0.00 0.00 0.00 42 1007.0
20260509024547 60 299 0.0 3.0 0.00 0.00 0.00 41 1006.9
20260509024042 60 299 1.0 3.0 0.00 0.00 0.00 41 1006.8
20260509023539 61 299 1.0 3.0 0.00 0.00 0.00 41 1006.8
20260509023041 63 299 0.0 2.0 0.00 0.00 0.00 39 1006.8
20260509022537 65 299 1.0 2.0 0.00 0.00 0.00 37 1006.8
20260509022036 66 299 0.0 3.0 0.00 0.00 0.00 35 1006.7
20260509021538 69 299 1.0 4.0 0.00 0.00 0.00 31 1006.6